Home   Weather   Chorzów   Past weeks
Flag for Poland

Past Weather in Chorzów, Poland — Yesterday and Last 2 Weeks

Now
75 °F

Passing clouds.


Feels Like: 78 °F
Forecast: 85 / 65 °F
Wind: 13 mph from Northeast

Location: Katowice Airport

Current Time: Jun 24, 2019 at 11:08:47 am

Latest Report: Jun 24, 2019 at 10:00 am


Visibility: N/A

Pressure: 30.24 "Hg

Humidity: 50%

Dew Point: 55 °F

Location of ChorzówLocation

Past Weather in Chorzów — Graph

°F

Chorzów Temperature Yesterday

Maximum temperature yesterday: 77 °F (at 3:00 pm)
Minimum temperature yesterday: 59 °F (at 5:30 am)
Average temperature yesterday: 69 °F

High & Low Weather Summary for the Past Weeks

 TemperatureHumidityPressure
High91 °F (Jun 15, 5:00 pm)100% (Jun 14, 5:30 am)30.33 "Hg (Jun 14, 5:30 am)
Low54 °F (Jun 18, 5:00 am)27% (Jun 9, 1:30 pm)29.83 "Hg (Jun 20, 4:30 pm)
Average72 °F63%30.03 "Hg
* Reported Jun 9 10:00 am — Jun 24 10:00 am, Chorzów. Weather by CustomWeather, © 2019

Note: Actual official high and low records may vary slightly from our data, if they occured in-between our weather recording intervals... More about our weather records

Advertising

Chorzów Weather History for the Previous 24 Hours

Scroll right to see more
 ConditionsComfort  
Time TempWeatherWind HumidityBarometerVisibility
10:00 am
Mon, Jun 24
75 °FPassing clouds.13 mph50%30.24 "HgN/A
9:30 am73 °FPassing clouds.12 mph57%30.21 "HgN/A
9:00 am73 °FPassing clouds.9 mph57%30.21 "HgN/A
8:30 am70 °FPassing clouds.8 mph60%30.21 "HgN/A
8:00 am68 °FSunny.5 mph60%30.21 "Hg10 mi
7:30 am64 °FPassing clouds.5 mph64%30.21 "HgN/A
7:00 am63 °FPassing clouds.3 mph64%30.21 "HgN/A
6:30 am61 °FSunny.3 mph63%30.21 "Hg10 mi
6:00 am61 °FSunny.1 mph63%30.21 "Hg10 mi
5:30 am57 °FSunny.2 mph67%30.21 "Hg10 mi
5:00 am55 °FSunny.1 mph72%30.18 "Hg10 mi
4:30 am57 °FClear.2 mph67%30.18 "Hg10 mi
4:00 am57 °FClear.2 mph67%30.18 "Hg10 mi
3:30 am55 °FClear.1 mph67%30.18 "Hg10 mi
3:00 am57 °FClear.6 mph59%30.18 "Hg10 mi
2:30 am59 °FClear.3 mph55%30.18 "Hg10 mi
2:00 am61 °FClear.6 mph52%30.18 "Hg10 mi
1:30 am61 °FClear.7 mph55%30.18 "Hg10 mi
1:00 am61 °FClear.7 mph55%30.18 "Hg10 mi
12:30 am61 °FClear.6 mph55%30.18 "Hg10 mi
12:00 am63 °FClear.6 mph52%30.18 "Hg10 mi
11:30 pm
Sun, Jun 23
63 °FClear.6 mph52%30.18 "Hg10 mi
11:00 pm63 °FClear.7 mph56%30.18 "Hg10 mi
10:30 pm64 °FClear.7 mph52%30.15 "Hg10 mi
10:00 pm66 °FClear.7 mph49%30.15 "Hg10 mi
9:30 pm68 °FClear.7 mph49%30.15 "Hg10 mi
9:00 pm70 °FClear.6 mph46%30.15 "Hg10 mi
8:30 pm72 °FSunny.8 mph47%30.12 "Hg10 mi
8:00 pm73 °FSunny.8 mph44%30.12 "Hg10 mi
7:30 pm73 °FSunny.10 mph44%30.12 "Hg10 mi
7:00 pm75 °FSunny.10 mph41%30.12 "Hg10 mi
6:30 pm75 °FSunny.7 mph44%30.12 "Hg10 mi
6:00 pm75 °FPassing clouds.10 mph41%30.12 "HgN/A
5:30 pm75 °FSunny.6 mph41%30.12 "Hg10 mi
5:00 pm75 °FSunny.10 mph44%30.12 "Hg10 mi
4:30 pm75 °FPassing clouds.12 mph44%30.12 "HgN/A
4:00 pm77 °FPassing clouds.13 mph42%30.12 "HgN/A
3:30 pm75 °FSunny.14 mph44%30.12 "Hg10 mi
3:00 pm77 °FPassing clouds.12 mph42%30.12 "HgN/A
2:30 pm75 °FPassing clouds.13 mph47%30.12 "HgN/A
2:00 pm73 °FSunny.12 mph47%30.15 "Hg10 mi
1:30 pm75 °FPassing clouds.14 mph47%30.12 "HgN/A
1:00 pm75 °FSunny.15 mph44%30.12 "Hg10 mi
12:30 pm75 °FPassing clouds.13 mph44%30.12 "HgN/A
12:00 pm75 °FPassing clouds.14 mph44%30.12 "HgN/A
11:30 am73 °FPassing clouds.15 mph47%30.12 "HgN/A
11:00 am73 °FSunny.14 mph47%30.12 "Hg10 mi
Weather by CustomWeather, © 2019

See weather overview